Location: Celina Division
(33.3022°N, 96.7580°W)
Time: 14:43:36
(UTC+00:00)

N. Korean satellite - Visible Passes

Search period start: 30 November 2022 00:00
Search period end: 10 December 2022 00:00
Orbit: 421 x 454 km, 97.3° (Epoch: 29 November)

Date Brightness Start Highest point End Pass type
(mag) Time Alt. Az. Time Alt. Az. Time Alt. Az.
30 Nov 9.6 10:51:02 10° ENE 10:53:00 14° E 10:54:55 10° SE visible
30 Nov 7.6 12:22:46 10° NNW 12:25:25 21° WNW 12:28:03 10° WSW visible
01 Dec 6.2 11:43:26 10° N 11:46:50 84° WNW 11:50:12 10° SSW visible
02 Dec 8.9 11:05:15 10° NE 11:08:01 23° E 11:10:45 10° SSE visible
02 Dec 8.2 12:38:30 10° NW 12:40:15 14° WNW 12:42:00 10° WSW visible
03 Dec 6.5 11:58:24 10° N 12:01:41 47° WNW 12:04:55 10° SSW visible
03 Dec 9.7 23:57:18 10° SW 23:59:10 14° W 00:01:04 10° WNW visible
04 Dec 7.8 11:19:40 10° NNE 11:22:52 38° E 11:26:00 10° SSE visible
05 Dec 10.0 10:43:10 10° E 10:43:48 10° E 10:44:26 10° ESE visible
05 Dec 7.2 12:13:24 10° NNW 12:16:21 28° WNW 12:19:16 10° SW visible
06 Dec 6.7 11:34:10 10° NNE 11:37:32 67° E 11:40:50 10° S visible
07 Dec 9.4 10:56:13 10° NE 10:58:29 17° E 11:00:42 10° SE visible
07 Dec 7.8 12:28:29 10° NNW 12:30:50 18° WNW 12:33:10 10° WSW visible
08 Dec 6.2 11:48:40 10° N 11:52:02 70° WNW 11:55:19 10° SSW visible
08 Dec 9.5 23:46:49 10° SW 23:49:21 20° W 23:51:54 10° NW visible
09 Dec 8.6 11:10:05 10° NE 11:12:58 26° E 11:15:49 10° SSE visible
09 Dec 8.3 12:43:57 10° NW 12:45:08 12° WNW 12:46:19 10° W visible
